Regional Weather Roundup
Issued by NWS

Home | Current Version | Previous Version | Graphics & Text | Print | Product List | Glossary On
Versions: 1 2 3 4 5 6 7 8 9 10 11 12 13 14 15 16 17 18 19 20 21 22 23 24 25 26 27 28 29 30 31 32 33 34 35 36 37 38 39 40 41 42 43 44 45 46 47 48 49 50
000
ASUS43 KLMK 281402
RWRKY
KENTUCKY REGIONAL WEATHER ROUNDUP
NATIONAL WEATHER SERVICE LOUISVILLE KY
1000 AM EDT WED SEP 28 2016

NOTE "FAIR" INDICATES FEW OR NO CLOUDS BELOW 12,000 FEET
WITH NO SIGNIFICANT WEATHER AND/OR OBSTRUCTIONS TO VISIBILITY.

KYZ001>023-026-027-061>063-070>075-281500-
WESTERN AND SOUTH CENTRAL KENTUCKY

CITY           SKY/WX    TMP DP  RH WIND       PRES   REMARKS
PADUCAH        SUNNY     67  51  56 SW12      29.84S
HENDERSON      CLOUDY    64  50  59 SW10      29.80S
OWENSBORO      PTSUNNY  N/A N/A N/A SW12      29.81F
HOPKINSVILLE   SUNNY     67  51  56 SW15      29.87F
BOWLING GREEN  PTSUNNY   67  51  56 S10       29.89S
GLASGOW        PTSUNNY   62  50  66 SW8       29.90S
$$

KYZ024-025-028>034-038-045-046-053-281500-
NORTH CENTRAL KENTUCKY

CITY           SKY/WX    TMP DP  RH WIND       PRES   REMARKS
LOUISVILLE/SDF LGT RAIN  62  51  67 SW8       29.83R
LOUISVILLE/LOU LGT RAIN  60  54  80 S3        29.83S
FORT KNOX      PTSUNNY   60  51  71 S6        29.82S
$$

KYZ035>037-039>044-047>052-055>060-089>105-281500-
NORTHEAST KENTUCKY

CITY           SKY/WX    TMP DP  RH WIND       PRES   REMARKS
LEXINGTON      PTSUNNY   65  46  50 S14       29.86F
COVINGTON      NOT AVBL
FRANKFORT      CLOUDY    65  47  52 S12G20    29.83F
$$

KYZ054-064>069-076>088-106>120-281500-
SOUTHEAST KENTUCKY

CITY           SKY/WX    TMP DP  RH WIND       PRES   REMARKS
JACKSON        SUNNY     60  47  61 CALM      29.94S
LONDON         SUNNY     59  48  67 S5        29.95S
SOMERSET       SUNNY     59  46  63 S5        29.95S
MIDDLESBORO    SUNNY     53  49  88 CALM      29.99S
MONTICELLO     SUNNY     65  49  56 E6        29.95S
$$




USA.gov is the U.S. government's official web portal to all federal, state and local government web resources and services.